AVA259 TJSJ-SKBO

Flight info

Callsign AVA259
Flight time 2h 22m
Altitude 34000
Route GANBO1 SCAPA UL325 ENPUT DCT DOPLO DOPLO5E
Aircraft A320/M-SDE3FGHIRWY/LB1

Departure

Time 2026-05-06 23:30
Airport Luis Munoz Marin International Airport (TJSJ)

Arrival

Time 2026-05-07 01:52
Airport El Dorado International Airport (SKBO)
Time Latitude Longitude Altitude Speed Heading
2026-05-06 22:55 18.43875 -66.00278 17 ft 0 kts 167°
2026-05-06 23:19 18.43890 -66.00282 17 ft 4 kts 172°
2026-05-06 23:19 18.43917 -66.00284 21 ft 4 kts 179°
2026-05-06 23:19 18.43944 -66.00285 18 ft 4 kts 155°
2026-05-06 23:20 18.43952 -66.00288 19 ft 4 kts 113°
2026-05-06 23:20 18.43956 -66.00262 17 ft 4 kts 72°
2026-05-06 23:20 18.43967 -66.00236 19 ft 4 kts 65°
2026-05-06 23:20 18.43979 -66.00210 17 ft 4 kts 65°
2026-05-06 23:21 18.43990 -66.00184 17 ft 4 kts 66°
2026-05-06 23:21 18.43996 -66.00169 19 ft 0 kts 67°
2026-05-06 23:24 18.43999 -66.00161 17 ft 3 kts 67°
2026-05-06 23:24 18.44022 -66.00135 17 ft 7 kts 21°
2026-05-06 23:24 18.44079 -66.00153 17 ft 11 kts 335°
2026-05-06 23:25 18.44149 -66.00185 17 ft 11 kts 336°
2026-05-06 23:25 18.44192 -66.00233 17 ft 8 kts 276°
2026-05-06 23:25 18.44175 -66.00285 19 ft 8 kts 246°
2026-05-06 23:25 18.44142 -66.00363 17 ft 15 kts 246°
2026-05-06 23:26 18.44123 -66.00484 18 ft 16 kts 261°
2026-05-06 23:26 18.44088 -66.00591 17 ft 14 kts 247°
2026-05-06 23:26 18.44052 -66.00680 17 ft 12 kts 247°
2026-05-06 23:26 18.44021 -66.00758 19 ft 11 kts 247°
2026-05-06 23:27 18.43988 -66.00836 17 ft 14 kts 246°
2026-05-06 23:27 18.43950 -66.00931 17 ft 13 kts 247°
2026-05-06 23:27 18.43916 -66.01014 19 ft 14 kts 246°
2026-05-06 23:27 18.43870 -66.01127 17 ft 17 kts 250°
2026-05-06 23:28 18.43832 -66.01238 17 ft 13 kts 247°
2026-05-06 23:28 18.43807 -66.01325 17 ft 11 kts 267°
2026-05-06 23:28 18.43795 -66.01401 17 ft 10 kts 248°
2026-05-06 23:28 18.43764 -66.01478 17 ft 13 kts 246°
2026-05-06 23:29 18.43786 -66.01551 17 ft 10 kts 319°
2026-05-06 23:29 18.43844 -66.01553 17 ft 9 kts 41°
2026-05-06 23:29 18.43891 -66.01452 17 ft 35 kts 67°
2026-05-06 23:29 18.44082 -66.00978 17 ft 103 kts 67°
2026-05-06 23:30 18.44437 -66.00097 18 ft 156 kts 66°
2026-05-06 23:30 18.44899 -65.99024 515 ft 157 kts 70°
2026-05-06 23:30 18.45595 -65.98141 1069 ft 165 kts 27°
2026-05-06 23:30 18.46751 -65.98017 1560 ft 175 kts 346°
2026-05-06 23:31 18.47830 -65.98610 2046 ft 179 kts 327°
2026-05-06 23:31 18.48874 -65.99410 2399 ft 192 kts 324°
2026-05-06 23:31 18.50062 -66.00193 2665 ft 212 kts 333°
2026-05-06 23:31 18.51456 -66.00910 2904 ft 234 kts 336°
2026-05-06 23:32 18.53008 -66.01665 3138 ft 259 kts 335°
2026-05-06 23:32 18.54520 -66.02818 3582 ft 277 kts 309°
2026-05-06 23:32 18.55393 -66.04628 4282 ft 281 kts 280°
2026-05-06 23:32 18.55351 -66.06635 5077 ft 280 kts 252°
2026-05-06 23:33 18.54374 -66.08417 5867 ft 280 kts 223°
2026-05-06 23:33 18.52727 -66.09494 6616 ft 282 kts 201°
2026-05-06 23:33 18.50915 -66.10222 7325 ft 284 kts 200°
2026-05-06 23:33 18.49046 -66.10960 8050 ft 287 kts 200°
2026-05-06 23:34 18.47165 -66.11700 8757 ft 290 kts 200°
2026-05-06 23:34 18.45268 -66.12449 9459 ft 293 kts 200°
2026-05-06 23:34 18.43346 -66.13213 10138 ft 296 kts 200°
2026-05-06 23:34 18.41359 -66.14006 10369 ft 317 kts 200°
2026-05-06 23:35 18.39231 -66.14858 10493 ft 339 kts 200°
2026-05-06 23:35 18.36962 -66.15767 10639 ft 358 kts 200°
2026-05-06 23:35 18.34604 -66.16710 11076 ft 365 kts 200°
2026-05-06 23:35 18.32217 -66.17662 11617 ft 369 kts 200°
2026-05-06 23:36 18.29794 -66.18627 12182 ft 373 kts 201°
2026-05-06 23:36 18.27434 -66.19851 12737 ft 376 kts 212°
2026-05-06 23:36 18.25355 -66.21542 13280 ft 380 kts 224°
2026-05-06 23:36 18.23552 -66.23586 13828 ft 383 kts 228°
2026-05-06 23:37 18.21767 -66.25679 14314 ft 386 kts 229°
2026-05-06 23:37 18.19967 -66.27783 14815 ft 388 kts 229°
2026-05-06 23:37 18.18148 -66.29909 15318 ft 391 kts 229°
2026-05-06 23:37 18.16328 -66.32036 15816 ft 393 kts 229°
2026-05-06 23:38 18.14509 -66.34153 16310 ft 395 kts 229°
2026-05-06 23:38 18.12634 -66.36333 16827 ft 398 kts 229°
2026-05-06 23:38 18.10767 -66.38504 17326 ft 401 kts 229°
2026-05-06 23:38 18.08864 -66.40665 17846 ft 405 kts 225°
2026-05-06 23:39 18.06648 -66.42510 18333 ft 410 kts 214°
2026-05-06 23:39 18.04134 -66.43864 18757 ft 414 kts 202°
2026-05-06 23:39 18.01346 -66.44687 19188 ft 419 kts 190°
2026-05-06 23:39 17.98400 -66.44984 19610 ft 423 kts 185°
2026-05-06 23:40 17.95492 -66.45198 20012 ft 426 kts 185°
2026-05-06 23:40 17.92524 -66.45418 20431 ft 428 kts 185°
2026-05-06 23:40 17.89545 -66.45645 20827 ft 431 kts 185°
2026-05-06 23:40 17.86543 -66.45875 21214 ft 434 kts 185°
2026-05-06 23:41 17.83514 -66.46109 21593 ft 437 kts 185°
2026-05-06 23:41 17.80483 -66.46345 21960 ft 439 kts 185°
2026-05-06 23:41 17.77425 -66.46583 22325 ft 442 kts 185°
2026-05-06 23:41 17.74353 -66.46822 22668 ft 444 kts 185°
2026-05-06 23:42 17.71256 -66.47064 23022 ft 447 kts 185°
2026-05-06 23:42 17.68144 -66.47303 23350 ft 450 kts 185°
2026-05-06 23:42 17.65013 -66.47541 23679 ft 452 kts 185°
2026-05-06 23:42 17.61872 -66.47782 23944 ft 454 kts 185°
2026-05-06 23:43 17.58711 -66.48027 24227 ft 456 kts 185°
2026-05-06 23:43 17.55546 -66.48271 24498 ft 457 kts 185°
2026-05-06 23:43 17.52370 -66.48516 24769 ft 458 kts 185°
2026-05-06 23:43 17.49186 -66.48763 25043 ft 460 kts 185°
2026-05-06 23:44 17.45987 -66.49051 25311 ft 461 kts 189°
2026-05-06 23:44 17.42864 -66.49746 25574 ft 460 kts 198°
2026-05-06 23:44 17.39867 -66.50948 25840 ft 460 kts 207°
2026-05-06 23:44 17.37082 -66.52591 26102 ft 460 kts 213°
2026-05-06 23:45 17.34352 -66.54342 26364 ft 461 kts 213°
2026-05-06 23:45 17.31616 -66.56098 26620 ft 462 kts 213°
2026-05-06 23:45 17.28867 -66.57860 26868 ft 464 kts 213°
2026-05-06 23:45 17.26116 -66.59620 27106 ft 465 kts 213°
2026-05-06 23:46 17.23350 -66.61388 27342 ft 466 kts 213°
2026-05-06 23:46 17.20576 -66.63160 27569 ft 467 kts 213°
2026-05-06 23:46 17.17800 -66.64929 27787 ft 469 kts 213°
2026-05-06 23:46 17.15011 -66.66706 28002 ft 470 kts 213°
2026-05-06 23:47 17.12211 -66.68493 28209 ft 471 kts 213°
2026-05-06 23:47 17.09446 -66.70260 28393 ft 472 kts 213°
2026-05-06 23:47 17.06642 -66.72052 28597 ft 474 kts 213°
2026-05-06 23:47 17.03827 -66.73847 28824 ft 474 kts 213°
2026-05-06 23:48 17.01017 -66.75637 29096 ft 472 kts 213°
2026-05-06 23:48 16.98211 -66.77422 29384 ft 471 kts 213°
2026-05-06 23:48 16.95415 -66.79204 29661 ft 471 kts 213°
2026-05-06 23:48 16.92622 -66.80984 29931 ft 470 kts 213°
2026-05-06 23:49 16.89829 -66.82759 30191 ft 469 kts 213°
2026-05-06 23:49 16.87037 -66.84532 30427 ft 468 kts 213°
2026-05-06 23:49 16.84255 -66.86296 30655 ft 468 kts 213°
2026-05-06 23:49 16.81473 -66.88062 30894 ft 467 kts 213°
2026-05-06 23:50 16.78704 -66.89819 31134 ft 466 kts 213°
2026-05-06 23:50 16.73170 -66.93325 31622 ft 464 kts 213°
2026-05-06 23:50 16.70421 -66.95070 31869 ft 463 kts 213°
2026-05-06 23:51 16.68602 -66.96226 32032 ft 462 kts 214°
2026-05-06 23:51 16.65870 -66.97962 32283 ft 461 kts 213°
2026-05-06 23:51 16.63130 -66.99701 32527 ft 460 kts 214°
2026-05-06 23:51 16.60406 -67.01432 32777 ft 459 kts 214°
2026-05-06 23:52 16.56790 -67.03726 33104 ft 457 kts 214°
2026-05-06 23:52 16.54076 -67.05449 33363 ft 456 kts 214°
2026-05-06 23:52 16.52249 -67.06607 33537 ft 455 kts 214°
2026-05-06 23:52 16.49546 -67.08315 33805 ft 454 kts 214°
2026-05-06 23:53 16.46843 -67.10020 33996 ft 453 kts 213°
2026-05-06 23:53 16.44150 -67.11719 34047 ft 453 kts 213°
2026-05-06 23:53 16.38756 -67.15128 34043 ft 453 kts 214°
2026-05-06 23:54 16.33413 -67.18513 34042 ft 453 kts 214°
2026-05-06 23:54 16.28010 -67.21921 34043 ft 453 kts 213°
2026-05-06 23:55 16.22620 -67.25324 34043 ft 453 kts 214°
2026-05-06 23:55 16.17222 -67.28730 34051 ft 453 kts 214°
2026-05-06 23:56 16.11833 -67.32131 34051 ft 453 kts 214°
2026-05-06 23:56 16.06437 -67.35528 34039 ft 453 kts 213°
2026-05-06 23:57 16.01053 -67.38912 34046 ft 453 kts 213°
2026-05-06 23:57 15.95663 -67.42296 34042 ft 453 kts 213°
2026-05-06 23:58 15.90305 -67.45662 34048 ft 452 kts 214°
2026-05-06 23:58 15.84922 -67.49053 34040 ft 453 kts 213°
2026-05-06 23:59 15.79180 -67.51796 34040 ft 455 kts 205°
2026-05-06 23:59 15.73314 -67.54271 34047 ft 455 kts 205°
2026-05-07 00:00 15.67440 -67.56746 34031 ft 455 kts 205°
2026-05-07 00:00 15.61564 -67.59222 34041 ft 455 kts 205°
2026-05-07 00:01 15.55696 -67.61701 34034 ft 455 kts 205°
2026-05-07 00:01 15.49835 -67.64180 34033 ft 455 kts 205°
2026-05-07 00:02 15.43973 -67.66648 34023 ft 455 kts 205°
2026-05-07 00:02 15.38113 -67.69122 34027 ft 455 kts 205°
2026-05-07 00:03 15.32251 -67.71584 34018 ft 454 kts 205°
2026-05-07 00:03 15.26416 -67.74028 34019 ft 454 kts 205°
2026-05-07 00:04 15.20523 -67.76502 34028 ft 454 kts 205°
2026-05-07 00:04 15.14711 -67.78945 34028 ft 454 kts 205°
2026-05-07 00:05 15.08855 -67.81402 34020 ft 454 kts 205°
2026-05-07 00:05 15.02999 -67.83863 34018 ft 454 kts 205°
2026-05-07 00:06 14.97139 -67.86326 34025 ft 454 kts 205°
2026-05-07 00:06 14.91276 -67.88781 34014 ft 454 kts 205°
2026-05-07 00:07 14.85421 -67.91229 34017 ft 454 kts 205°
2026-05-07 00:07 14.79554 -67.93684 34013 ft 455 kts 205°
2026-05-07 00:08 14.73690 -67.96138 34016 ft 455 kts 205°
2026-05-07 00:08 14.67814 -67.98594 34007 ft 455 kts 205°
2026-05-07 00:09 14.61958 -68.01049 34002 ft 455 kts 205°
2026-05-07 00:09 14.56071 -68.03509 34006 ft 455 kts 205°
2026-05-07 00:10 14.50233 -68.05938 34006 ft 455 kts 205°
2026-05-07 00:10 14.44325 -68.08405 34012 ft 456 kts 205°
2026-05-07 00:11 14.38448 -68.10859 33997 ft 456 kts 205°
2026-05-07 00:11 14.32601 -68.13297 33998 ft 456 kts 205°
2026-05-07 00:12 14.26709 -68.15749 34005 ft 456 kts 205°
2026-05-07 00:12 14.20831 -68.18192 34001 ft 456 kts 205°
2026-05-07 00:13 14.14944 -68.20642 34001 ft 456 kts 205°
2026-05-07 00:13 14.09057 -68.23091 33997 ft 456 kts 205°
2026-05-07 00:14 14.03176 -68.25540 33994 ft 456 kts 205°
2026-05-07 00:14 13.97290 -68.27993 33995 ft 456 kts 205°
2026-05-07 00:15 13.91393 -68.30446 33995 ft 457 kts 205°
2026-05-07 00:15 13.85493 -68.32894 33995 ft 457 kts 205°
2026-05-07 00:16 13.79607 -68.35338 33991 ft 457 kts 205°
2026-05-07 00:16 13.73703 -68.37783 33991 ft 457 kts 205°
2026-05-07 00:17 13.67810 -68.40222 33991 ft 457 kts 205°
2026-05-07 00:17 13.61914 -68.42666 33991 ft 457 kts 205°
2026-05-07 00:18 13.56011 -68.45105 33990 ft 457 kts 205°
2026-05-07 00:18 13.50105 -68.47548 33986 ft 457 kts 205°
2026-05-07 00:19 13.44202 -68.49981 33984 ft 457 kts 205°
2026-05-07 00:19 13.38297 -68.52411 33985 ft 457 kts 205°
2026-05-07 00:20 13.32383 -68.54850 33985 ft 457 kts 205°
2026-05-07 00:20 13.26484 -68.57289 33983 ft 457 kts 205°
2026-05-07 00:21 13.20579 -68.59730 33982 ft 457 kts 205°
2026-05-07 00:21 13.14678 -68.62166 33979 ft 457 kts 205°
2026-05-07 00:22 13.08822 -68.64582 33980 ft 457 kts 205°
2026-05-07 00:22 13.02918 -68.67016 33974 ft 457 kts 205°
2026-05-07 00:23 12.97024 -68.69440 33975 ft 457 kts 205°
2026-05-07 00:23 12.91118 -68.71872 33974 ft 457 kts 205°
2026-05-07 00:24 12.85208 -68.74309 33971 ft 457 kts 205°
2026-05-07 00:24 12.79312 -68.76734 33966 ft 457 kts 205°
2026-05-07 00:25 12.73423 -68.79158 33962 ft 457 kts 205°
2026-05-07 00:25 12.67522 -68.81590 33963 ft 457 kts 205°
2026-05-07 00:26 12.61655 -68.83999 33961 ft 457 kts 205°
2026-05-07 00:26 12.55751 -68.86411 33960 ft 457 kts 205°
2026-05-07 00:27 12.49844 -68.88833 33960 ft 456 kts 205°
2026-05-07 00:27 12.43960 -68.91253 33961 ft 456 kts 205°
2026-05-07 00:28 12.38063 -68.93669 33959 ft 456 kts 205°
2026-05-07 00:28 12.32164 -68.96084 33960 ft 456 kts 205°
2026-05-07 00:29 12.26271 -68.98501 33965 ft 457 kts 205°
2026-05-07 00:30 12.17826 -69.02839 33962 ft 451 kts 221°
2026-05-07 00:30 12.15438 -69.04899 33960 ft 450 kts 223°
2026-05-07 00:30 12.10663 -69.09059 33953 ft 450 kts 223°
2026-05-07 00:31 12.05895 -69.13203 33956 ft 450 kts 223°
2026-05-07 00:31 12.01111 -69.17354 33956 ft 451 kts 223°
2026-05-07 00:32 11.96370 -69.21472 33957 ft 451 kts 223°
2026-05-07 00:32 11.91596 -69.25620 33955 ft 450 kts 223°
2026-05-07 00:33 11.86822 -69.29769 33958 ft 450 kts 223°
2026-05-07 00:33 11.82053 -69.33913 33956 ft 450 kts 223°
2026-05-07 00:34 11.77289 -69.38057 33950 ft 450 kts 223°
2026-05-07 00:34 11.72525 -69.42194 33960 ft 450 kts 223°
2026-05-07 00:35 11.67746 -69.46333 33954 ft 450 kts 223°
2026-05-07 00:35 11.62981 -69.50460 33947 ft 450 kts 223°
2026-05-07 00:36 11.58206 -69.54604 33935 ft 450 kts 223°
2026-05-07 00:36 11.53432 -69.58735 33935 ft 450 kts 222°
2026-05-07 00:37 11.48654 -69.62867 33933 ft 451 kts 222°
2026-05-07 00:37 11.44671 -69.66312 33930 ft 451 kts 222°
2026-05-07 00:38 11.39868 -69.70482 33929 ft 451 kts 223°
2026-05-07 00:38 11.35222 -69.74770 33931 ft 450 kts 225°
2026-05-07 00:39 11.30638 -69.79118 33932 ft 450 kts 225°
2026-05-07 00:39 11.26029 -69.83449 33933 ft 451 kts 224°
2026-05-07 00:40 11.21394 -69.87753 33936 ft 451 kts 224°
2026-05-07 00:40 11.16743 -69.92056 33934 ft 451 kts 224°
2026-05-07 00:41 11.12113 -69.96356 33934 ft 451 kts 224°
2026-05-07 00:41 11.07508 -70.00638 33932 ft 451 kts 224°
2026-05-07 00:42 11.02847 -70.04980 33929 ft 451 kts 224°
2026-05-07 00:42 10.98225 -70.09294 33922 ft 451 kts 224°
2026-05-07 00:43 10.93622 -70.13589 33923 ft 452 kts 224°
2026-05-07 00:43 10.88991 -70.17913 33925 ft 452 kts 224°
2026-05-07 00:44 10.84351 -70.22243 33926 ft 452 kts 224°
2026-05-07 00:44 10.79705 -70.26567 33923 ft 453 kts 224°
2026-05-07 00:45 10.75057 -70.30890 33925 ft 453 kts 224°
2026-05-07 00:45 10.70400 -70.35228 33927 ft 453 kts 224°
2026-05-07 00:46 10.65745 -70.39562 33934 ft 454 kts 224°
2026-05-07 00:46 10.61096 -70.43898 33932 ft 454 kts 224°
2026-05-07 00:47 10.56429 -70.48231 33937 ft 454 kts 224°
2026-05-07 00:47 10.51757 -70.52559 33941 ft 454 kts 224°
2026-05-07 00:48 10.47114 -70.56860 33942 ft 455 kts 224°
2026-05-07 00:48 10.42438 -70.61185 33937 ft 455 kts 224°
2026-05-07 00:49 10.37721 -70.65541 33937 ft 455 kts 224°
2026-05-07 00:49 10.33065 -70.69844 33943 ft 455 kts 224°
2026-05-07 00:50 10.28383 -70.74177 33942 ft 456 kts 224°
2026-05-07 00:50 10.23689 -70.78519 33940 ft 456 kts 224°
2026-05-07 00:51 10.19001 -70.82856 33936 ft 456 kts 223°
2026-05-07 00:51 10.14303 -70.87199 33934 ft 456 kts 223°
2026-05-07 00:52 10.09610 -70.91538 33927 ft 457 kts 223°
2026-05-07 00:52 10.04910 -70.95881 33918 ft 457 kts 223°
2026-05-07 00:53 10.00208 -71.00216 33916 ft 457 kts 223°
2026-05-07 00:53 9.95488 -71.04565 33909 ft 458 kts 223°
2026-05-07 00:54 9.90785 -71.08910 33903 ft 458 kts 223°
2026-05-07 00:54 9.86061 -71.13262 33903 ft 458 kts 223°
2026-05-07 00:55 9.81344 -71.17603 33900 ft 458 kts 223°
2026-05-07 00:55 9.76624 -71.21949 33899 ft 459 kts 223°
2026-05-07 00:56 9.71894 -71.26305 33898 ft 459 kts 223°
2026-05-07 00:56 9.67330 -71.30515 33896 ft 460 kts 223°
2026-05-07 00:57 9.62591 -71.34867 33899 ft 460 kts 223°
2026-05-07 00:57 9.57838 -71.39225 33898 ft 460 kts 223°
2026-05-07 00:58 9.53091 -71.43589 33900 ft 461 kts 223°
2026-05-07 00:58 9.48343 -71.47945 33899 ft 461 kts 223°
2026-05-07 00:59 9.41204 -71.54496 33897 ft 462 kts 223°
2026-05-07 01:00 9.36437 -71.58874 33898 ft 462 kts 223°
2026-05-07 01:00 9.31686 -71.63242 33901 ft 462 kts 223°
2026-05-07 01:01 9.26910 -71.67622 33903 ft 462 kts 223°
2026-05-07 01:01 9.22113 -71.72018 33904 ft 463 kts 223°
2026-05-07 01:02 9.17347 -71.76381 33904 ft 463 kts 222°
2026-05-07 01:02 9.12596 -71.80736 33906 ft 463 kts 223°
2026-05-07 01:03 9.07852 -71.85083 33907 ft 463 kts 222°
2026-05-07 01:03 9.03091 -71.89435 33905 ft 463 kts 222°
2026-05-07 01:04 8.98205 -71.93749 33905 ft 463 kts 216°
2026-05-07 01:04 8.92693 -71.97059 33913 ft 464 kts 210°
2026-05-07 01:05 8.87032 -72.00223 33910 ft 464 kts 209°
2026-05-07 01:05 8.81408 -72.03360 33906 ft 464 kts 209°
2026-05-07 01:06 8.75741 -72.06537 33910 ft 464 kts 210°
2026-05-07 01:06 8.71065 -72.09163 33906 ft 464 kts 210°
2026-05-07 01:07 8.65393 -72.12337 33913 ft 464 kts 209°
2026-05-07 01:07 8.59776 -72.15475 33920 ft 464 kts 209°
2026-05-07 01:08 8.54244 -72.18572 33925 ft 464 kts 210°
2026-05-07 01:08 8.48901 -72.21563 33935 ft 464 kts 211°
2026-05-07 01:09 8.43384 -72.24782 33927 ft 464 kts 210°
2026-05-07 01:09 8.37793 -72.27837 33937 ft 464 kts 208°
2026-05-07 01:10 8.32062 -72.30965 33948 ft 464 kts 209°
2026-05-07 01:10 8.26407 -72.34116 33956 ft 463 kts 209°
2026-05-07 01:11 8.20774 -72.37266 33973 ft 463 kts 209°
2026-05-07 01:11 8.15003 -72.40160 33990 ft 463 kts 205°
2026-05-07 01:12 8.09121 -72.42790 34002 ft 462 kts 204°
2026-05-07 01:12 8.03248 -72.45418 34017 ft 461 kts 205°
2026-05-07 01:13 7.97407 -72.48114 34020 ft 461 kts 205°
2026-05-07 01:13 7.91600 -72.50829 34018 ft 460 kts 205°
2026-05-07 01:14 7.85794 -72.53533 34018 ft 459 kts 205°
2026-05-07 01:14 7.79992 -72.56227 34022 ft 459 kts 205°
2026-05-07 01:15 7.74195 -72.58912 34037 ft 458 kts 204°
2026-05-07 01:15 7.68396 -72.61591 34063 ft 458 kts 204°
2026-05-07 01:16 7.62642 -72.64251 34096 ft 457 kts 204°
2026-05-07 01:16 7.56874 -72.66929 34121 ft 456 kts 204°
2026-05-07 01:17 7.51112 -72.69603 34131 ft 455 kts 204°
2026-05-07 01:17 7.45353 -72.72270 34144 ft 455 kts 204°
2026-05-07 01:18 7.39606 -72.74926 34148 ft 454 kts 204°
2026-05-07 01:18 7.33855 -72.77581 34146 ft 454 kts 204°
2026-05-07 01:19 7.28113 -72.80235 34150 ft 454 kts 204°
2026-05-07 01:19 7.22372 -72.82896 34149 ft 454 kts 204°
2026-05-07 01:20 7.16623 -72.85555 34131 ft 454 kts 204°
2026-05-07 01:20 7.10831 -72.88228 34114 ft 455 kts 204°
2026-05-07 01:21 7.05079 -72.90883 34107 ft 455 kts 204°
2026-05-07 01:21 6.99327 -72.93536 34093 ft 455 kts 204°
2026-05-07 01:22 6.93562 -72.96198 34086 ft 456 kts 204°
2026-05-07 01:22 6.87799 -72.98857 34077 ft 456 kts 204°
2026-05-07 01:23 6.82029 -73.01520 34066 ft 456 kts 204°
2026-05-07 01:23 6.76257 -73.04184 34066 ft 457 kts 204°
2026-05-07 01:24 6.70487 -73.06853 34065 ft 457 kts 204°
2026-05-07 01:24 6.64702 -73.09528 34071 ft 457 kts 204°
2026-05-07 01:25 6.58915 -73.12192 34087 ft 457 kts 204°
2026-05-07 01:25 6.53130 -73.14853 34091 ft 457 kts 204°
2026-05-07 01:26 6.47344 -73.17510 34106 ft 457 kts 204°
2026-05-07 01:26 6.41557 -73.20176 34116 ft 457 kts 204°
2026-05-07 01:27 6.35762 -73.22849 34125 ft 457 kts 204°
2026-05-07 01:27 6.29971 -73.25518 34137 ft 457 kts 204°
2026-05-07 01:28 6.24183 -73.28185 34144 ft 457 kts 204°
2026-05-07 01:28 6.18397 -73.30839 34155 ft 457 kts 204°
2026-05-07 01:29 6.12605 -73.33497 34164 ft 458 kts 204°
2026-05-07 01:29 6.06814 -73.36164 34171 ft 458 kts 204°
2026-05-07 01:30 6.01020 -73.38833 34185 ft 458 kts 204°
2026-05-07 01:30 5.95227 -73.41491 34204 ft 458 kts 204°
2026-05-07 01:31 5.89439 -73.44147 34217 ft 458 kts 204°
2026-05-07 01:31 5.83721 -73.46971 34224 ft 458 kts 212°
2026-05-07 01:32 5.78557 -73.50730 34239 ft 459 kts 216°
2026-05-07 01:32 5.75979 -73.52643 34029 ft 460 kts 216°
2026-05-07 01:32 5.73408 -73.54551 33778 ft 461 kts 216°
2026-05-07 01:32 5.70829 -73.56464 33533 ft 462 kts 216°
2026-05-07 01:33 5.68232 -73.58391 33293 ft 463 kts 216°
2026-05-07 01:33 5.65649 -73.60305 33057 ft 464 kts 216°
2026-05-07 01:33 5.63051 -73.62232 32806 ft 464 kts 215°
2026-05-07 01:33 5.60450 -73.64162 32571 ft 465 kts 215°
2026-05-07 01:34 5.57844 -73.66094 32333 ft 466 kts 215°
2026-05-07 01:34 5.55229 -73.68028 32098 ft 467 kts 215°
2026-05-07 01:34 5.52613 -73.69962 31864 ft 468 kts 215°
2026-05-07 01:34 5.49988 -73.71904 31409 ft 468 kts 215°
2026-05-07 01:35 5.47345 -73.73860 30255 ft 476 kts 215°
2026-05-07 01:35 5.44767 -73.75969 28966 ft 483 kts 223°
2026-05-07 01:35 5.42559 -73.78513 28121 ft 481 kts 233°
2026-05-07 01:35 5.40805 -73.81352 27406 ft 476 kts 242°
2026-05-07 01:36 5.39908 -73.83361 26898 ft 475 kts 249°
2026-05-07 01:36 5.38822 -73.86472 26138 ft 472 kts 251°
2026-05-07 01:36 5.37750 -73.89599 25392 ft 470 kts 251°
2026-05-07 01:36 5.36695 -73.92685 24711 ft 468 kts 251°
2026-05-07 01:37 5.35656 -73.95734 24526 ft 452 kts 251°
2026-05-07 01:37 5.34656 -73.98668 24406 ft 436 kts 251°
2026-05-07 01:37 5.33688 -74.01504 24285 ft 422 kts 251°
2026-05-07 01:37 5.32747 -74.04259 23981 ft 414 kts 251°
2026-05-07 01:38 5.31813 -74.06986 23493 ft 411 kts 251°
2026-05-07 01:38 5.30888 -74.09682 22995 ft 408 kts 251°
2026-05-07 01:38 5.29962 -74.12371 22513 ft 405 kts 251°
2026-05-07 01:38 5.29049 -74.15028 22059 ft 402 kts 251°
2026-05-07 01:39 5.28151 -74.17649 21588 ft 400 kts 251°
2026-05-07 01:39 5.27242 -74.20308 21115 ft 398 kts 251°
2026-05-07 01:39 5.26347 -74.22927 20668 ft 395 kts 251°
2026-05-07 01:39 5.25458 -74.25522 20183 ft 393 kts 251°
2026-05-07 01:40 5.24574 -74.28093 19568 ft 384 kts 251°
2026-05-07 01:40 5.23777 -74.30588 19211 ft 368 kts 257°
2026-05-07 01:40 5.23447 -74.33112 18645 ft 361 kts 270°
2026-05-07 01:40 5.23602 -74.35619 18278 ft 359 kts 276°
2026-05-07 01:41 5.23811 -74.38098 18159 ft 355 kts 276°
2026-05-07 01:41 5.24008 -74.40569 18169 ft 355 kts 275°
2026-05-07 01:41 5.24201 -74.43043 17788 ft 354 kts 275°
2026-05-07 01:41 5.24236 -74.45501 17760 ft 353 kts 265°
2026-05-07 01:42 5.23769 -74.47925 17720 ft 355 kts 251°
2026-05-07 01:42 5.22677 -74.50120 17446 ft 350 kts 231°
2026-05-07 01:42 5.20967 -74.51816 17206 ft 345 kts 211°
2026-05-07 01:42 5.18840 -74.52848 16963 ft 338 kts 192°
2026-05-07 01:43 5.16571 -74.53142 16707 ft 327 kts 172°
2026-05-07 01:43 5.14366 -74.52719 16478 ft 314 kts 155°
2026-05-07 01:43 5.12394 -74.51812 16153 ft 311 kts 150°
2026-05-07 01:43 5.10450 -74.50862 15795 ft 312 kts 150°
2026-05-07 01:44 5.08516 -74.49920 15439 ft 312 kts 150°
2026-05-07 01:44 5.06576 -74.48977 15080 ft 311 kts 150°
2026-05-07 01:44 5.04594 -74.48014 14701 ft 311 kts 150°
2026-05-07 01:44 5.02642 -74.47067 14332 ft 312 kts 150°
2026-05-07 01:45 5.00699 -74.46126 14057 ft 309 kts 150°
2026-05-07 01:45 4.98781 -74.45198 13665 ft 308 kts 151°
2026-05-07 01:45 4.96859 -74.44270 13356 ft 305 kts 150°
2026-05-07 01:45 4.94946 -74.43345 13178 ft 297 kts 150°
2026-05-07 01:46 4.93164 -74.42485 13073 ft 288 kts 150°
2026-05-07 01:46 4.91480 -74.41438 12960 ft 275 kts 137°
2026-05-07 01:46 4.90189 -74.40066 12839 ft 269 kts 123°
2026-05-07 01:46 4.89092 -74.38538 12471 ft 271 kts 123°
2026-05-07 01:47 4.88003 -74.37013 12270 ft 266 kts 123°
2026-05-07 01:47 4.86885 -74.35571 12177 ft 258 kts 129°
2026-05-07 01:47 4.85741 -74.34224 12077 ft 249 kts 126°
2026-05-07 01:47 4.84702 -74.32886 11980 ft 237 kts 125°
2026-05-07 01:48 4.83728 -74.31593 11960 ft 230 kts 124°
2026-05-07 01:48 4.82770 -74.30321 11886 ft 228 kts 125°
2026-05-07 01:48 4.81815 -74.29058 11665 ft 225 kts 125°
2026-05-07 01:48 4.80883 -74.27826 11407 ft 218 kts 125°
2026-05-07 01:49 4.79981 -74.26634 11133 ft 212 kts 126°
2026-05-07 01:49 4.79105 -74.25475 10884 ft 205 kts 126°
2026-05-07 01:49 4.78258 -74.24354 10640 ft 198 kts 126°
2026-05-07 01:49 4.77438 -74.23270 10407 ft 192 kts 126°
2026-05-07 01:50 4.76645 -74.22223 10173 ft 185 kts 126°
2026-05-07 01:50 4.75889 -74.21223 9921 ft 174 kts 126°
2026-05-07 01:50 4.75180 -74.20286 9696 ft 168 kts 126°
2026-05-07 01:50 4.74467 -74.19343 9486 ft 167 kts 127°
2026-05-07 01:51 4.73768 -74.18419 9257 ft 166 kts 127°
2026-05-07 01:51 4.73073 -74.17504 9025 ft 164 kts 127°
2026-05-07 01:51 4.72380 -74.16594 8784 ft 164 kts 127°
2026-05-07 01:51 4.71697 -74.15680 8490 ft 163 kts 128°
2026-05-07 01:52 4.71021 -74.14791 8366 ft 153 kts 127°
2026-05-07 01:52 4.70478 -74.14069 8365 ft 102 kts 127°
2026-05-07 01:52 4.70237 -74.13754 8364 ft 34 kts 131°
2026-05-07 01:52 4.70053 -74.13635 8367 ft 30 kts 156°
2026-05-07 01:53 4.69962 -74.13597 8366 ft 7 kts 158°
2026-05-07 01:53 4.69957 -74.13595 8366 ft 0 kts 158°
2026-05-07 01:53 4.69955 -74.13594 8366 ft 2 kts 158°
2026-05-07 01:54 4.69935 -74.13586 8366 ft 4 kts 158°
2026-05-07 01:54 4.69908 -74.13575 8366 ft 5 kts 157°
2026-05-07 01:54 4.69863 -74.13566 8366 ft 8 kts 186°
2026-05-07 01:54 4.69814 -74.13611 8366 ft 12 kts 256°
2026-05-07 01:55 4.69853 -74.13691 8366 ft 13 kts 294°
2026-05-07 01:55 4.69839 -74.13768 8366 ft 10 kts 275°
2026-05-07 01:55 4.69860 -74.13825 8366 ft 7 kts 264°
2026-05-07 01:55 4.69830 -74.13852 8366 ft 5 kts 216°
2026-05-07 01:56 4.69811 -74.13867 8366 ft 2 kts 216°
2026-05-07 01:56 4.69805 -74.13871 8366 ft 0 kts 217°
2026-05-07 01:56 4.69802 -74.13873 8366 ft 0 kts 217°